Language: 


Des rapports , des résumés tant et plus, au choix de chacun....


Données statistiques de la station
Quotidien Rapport Juin 26, 2017 Unités:  Anglais    Métrique   les deux
« Précédent Jour
Suivant Jour »
Quotidien Hebdomadaire Mensuel Annuel Actuel
  Haut: Bas: Moyen:
Température: 81.3 °F 58.6 °F 68 °F
Pt de rosée: 60.8 °F 46.4 °F 53.6 °F
Humidité: 95 % 34 % 64 %
Vitesse du vent: 11 mph 0 mph 4.5 mph
Rafales: 13.2 mph - -
Vent:- - South
Pression: 30 in 29.9 in -
Précipitation: 0 in    
Historical Graphs
 
 
Données statistiques pour Juin 26, 2017
Heure Température Point de rosée Pression Vent Vitesse du vent Refales Humidité Pluie (taux horaire)
00:04 61 °F 57.2 °F 29.9 in West 8.5 mph 13.2 mph 89 % 0 in
00:09 61 °F 57.2 °F 29.9 in WSW 10.3 mph 11 mph 89 % 0 in
00:14 60.8 °F 57.2 °F 29.9 in WSW 5.6 mph 10.7 mph 90 % 0 in
00:19 60.6 °F 57.2 °F 29.9 in West 8.5 mph 10.1 mph 90 % 0 in
00:24 60.4 °F 57.2 °F 29.9 in WSW 7.6 mph 9.8 mph 90 % 0 in
00:29 60.4 °F 57.2 °F 29.9 in WSW 6.3 mph 9.8 mph 91 % 0 in
00:34 60.3 °F 57.2 °F 29.9 in WSW 5.8 mph 8.7 mph 91 % 0 in
00:39 60.3 °F 57.2 °F 29.9 in WSW 6.3 mph 11.4 mph 91 % 0 in
00:44 60.3 °F 57.2 °F 29.9 in WSW 5.8 mph 11.4 mph 92 % 0 in
00:49 60.3 °F 57.2 °F 29.9 in WSW 4.7 mph 8.5 mph 91 % 0 in
00:54 60.1 °F 57.2 °F 29.9 in WSW 6.3 mph 7.6 mph 92 % 0 in
00:59 59.9 °F 57.2 °F 29.9 in West 8.7 mph 8.7 mph 92 % 0 in
01:04 59.9 °F 57.2 °F 29.9 in SW 5.8 mph 8.7 mph 92 % 0 in
01:09 59.7 °F 57.2 °F 29.9 in Calm   7.6 mph 92 % 0 in
01:14 59.7 °F 57.2 °F 29.9 in WSW 3.6 mph 7.4 mph 92 % 0 in
01:19 59.9 °F 57.2 °F 29.9 in West 6.7 mph 7.4 mph 92 % 0 in
01:24 59.9 °F 59 °F 29.9 in WSW 4.9 mph 6.7 mph 93 % 0 in
01:29 59.9 °F 59 °F 29.9 in WSW 3.1 mph 6.3 mph 93 % 0 in
01:34 60.1 °F 59 °F 29.9 in WSW 4 mph 8.7 mph 93 % 0 in
01:39 60.1 °F 59 °F 29.9 in WSW 6.3 mph 8.7 mph 93 % 0 in
01:44 60.1 °F 59 °F 29.9 in WSW 4.9 mph 6.9 mph 93 % 0 in
01:49 59.9 °F 59 °F 29.9 in SW 3.8 mph 7.6 mph 93 % 0 in
01:54 59.7 °F 57.2 °F 29.9 in WSW 6.3 mph 7.6 mph 93 % 0 in
01:59 59.7 °F 57.2 °F 29.9 in WSW 5.6 mph 7.2 mph 93 % 0 in
02:05 59.7 °F 57.2 °F 29.9 in WSW 6.3 mph 7.2 mph 93 % 0 in
02:10 59.7 °F 57.2 °F 29.9 in WSW 4.9 mph 7.2 mph 93 % 0 in
02:15 59.7 °F 57.2 °F 29.9 in SW 3.1 mph 7.2 mph 94 % 0 in
02:20 59.9 °F 59 °F 29.9 in WSW 6.3 mph 6.3 mph 94 % 0 in
02:25 59.9 °F 59 °F 29.9 in West 4.9 mph 6.3 mph 94 % 0 in
02:30 60.1 °F 59 °F 29.9 in WSW 3.6 mph 6.3 mph 94 % 0 in
02:35 60.3 °F 59 °F 29.9 in WSW 3.8 mph 6.5 mph 94 % 0 in
02:40 60.4 °F 59 °F 29.9 in SW 4.9 mph 7.8 mph 94 % 0 in
02:45 60.4 °F 59 °F 29.9 in WSW 5.8 mph 7.8 mph 94 % 0 in
02:50 60.6 °F 59 °F 29.9 in SSW 4.3 mph 6.5 mph 94 % 0 in
02:55 60.6 °F 59 °F 29.9 in West 6 mph 6.5 mph 94 % 0 in
03:00 60.8 °F 59 °F 29.9 in WSW 5.8 mph 7.2 mph 93 % 0 in
03:05 60.8 °F 59 °F 29.9 in WSW 7.8 mph 10.3 mph 93 % 0 in
03:10 60.8 °F 59 °F 29.9 in West 6.5 mph 10.3 mph 93 % 0 in
03:15 61 °F 59 °F 29.9 in West 5.8 mph 9.4 mph 93 % 0 in
03:20 61 °F 59 °F 29.9 in WSW 4 mph 9.4 mph 93 % 0 in
03:25 61 °F 59 °F 29.9 in Calm   9.4 mph 93 % 0 in
03:30 61 °F 59 °F 29.9 in WSW 3.4 mph 7.6 mph 93 % 0 in
03:35 60.8 °F 59 °F 29.9 in WSW 5.8 mph 7.6 mph 93 % 0 in
03:40 60.8 °F 59 °F 29.9 in WSW 5.6 mph 6.3 mph 93 % 0 in
03:45 60.6 °F 59 °F 29.9 in WSW 5.4 mph 6.5 mph 93 % 0 in
03:50 60.6 °F 59 °F 29.9 in West 5.4 mph 7.4 mph 93 % 0 in
03:55 60.6 °F 59 °F 29.9 in WSW 4.3 mph 7.4 mph 93 % 0 in
04:00 60.6 °F 59 °F 29.9 in WSW 3.6 mph 7.4 mph 93 % 0 in
04:05 60.6 °F 59 °F 29.9 in WSW 4 mph 7.4 mph 93 % 0 in
04:10 60.6 °F 59 °F 29.9 in WSW 3.4 mph 7.2 mph 94 % 0 in
04:16 60.6 °F 59 °F 29.9 in WSW 4.9 mph 6.5 mph 94 % 0 in
04:21 60.4 °F 59 °F 29.9 in West 7.4 mph 7.8 mph 94 % 0 in
04:26 60.4 °F 59 °F 29.9 in West 3.8 mph 7.4 mph 93 % 0 in
04:31 60.3 °F 59 °F 29.9 in Calm   6.3 mph 93 % 0 in
04:36 60.1 °F 59 °F 29.9 in West 4.5 mph 6.3 mph 93 % 0 in
04:41 59.9 °F 59 °F 29.9 in WSW 2.7 mph 6.3 mph 93 % 0 in
04:46 59.7 °F 57.2 °F 29.9 in Calm   4.9 mph 93 % 0 in
04:51 59.7 °F 57.2 °F 29.9 in Calm   4 mph 94 % 0 in
04:56 59.4 °F 57.2 °F 29.9 in Calm     94 % 0 in
05:01 59.4 °F 57.2 °F 29.9 in Calm   3.1 mph 94 % 0 in
05:06 59.2 °F 57.2 °F 29.9 in Calm   3.1 mph 94 % 0 in
05:11 59.2 °F 57.2 °F 29.9 in Calm   3.8 mph 94 % 0 in
05:16 58.8 °F 57.2 °F 29.9 in West 2.9 mph 3.8 mph 94 % 0 in
05:22 58.8 °F 57.2 °F 29.9 in Calm   4.3 mph 94 % 0 in
05:27 58.6 °F 57.2 °F 29.9 in Calm   4.3 mph 94 % 0 in
05:32 58.8 °F 57.2 °F 29.9 in Calm     94 % 0 in
05:37 58.8 °F 57.2 °F 29.9 in Calm   2.5 mph 95 % 0 in
05:42 58.8 °F 57.2 °F 29.9 in Calm   2.5 mph 95 % 0 in
05:47 58.8 °F 57.2 °F 29.9 in West 3.4 mph 3.4 mph 95 % 0 in
05:52 58.8 °F 57.2 °F 29.9 in West 3.8 mph 5.8 mph 95 % 0 in
05:57 59 °F 57.2 °F 29.9 in Calm   5.8 mph 95 % 0 in
06:02 59 °F 57.2 °F 29.9 in West 3.8 mph 6.3 mph 95 % 0 in
06:07 59.2 °F 57.2 °F 29.9 in West 4.7 mph 6.3 mph 95 % 0 in
06:12 59.2 °F 57.2 °F 29.9 in Calm   6.5 mph 95 % 0 in
06:17 59.2 °F 57.2 °F 29.9 in West 4.9 mph 6.5 mph 95 % 0 in
06:22 59.4 °F 59 °F 29.9 in WSW 4 mph 6.3 mph 95 % 0 in
06:27 59.4 °F 59 °F 29.9 in West 2.7 mph 6.5 mph 95 % 0 in
06:32 59.4 °F 59 °F 29.9 in WSW 0.9 mph 6.5 mph 95 % 0 in
06:37 59.5 °F 59 °F 29.9 in West 0.9 mph 4.9 mph 95 % 0 in
06:42 59.7 °F 59 °F 29.9 in Calm   6.3 mph 95 % 0 in
06:47 59.9 °F 59 °F 29.9 in West 5.6 mph 6.3 mph 95 % 0 in
06:52 60.1 °F 59 °F 29.9 in West 4.9 mph 5.6 mph 95 % 0 in
06:57 60.4 °F 59 °F 29.9 in Calm   5.6 mph 95 % 0 in
07:02 60.4 °F 59 °F 29.9 in West 4.7 mph 5.6 mph 95 % 0 in
07:07 60.8 °F 59 °F 29.9 in Calm   4.7 mph 94 % 0 in
07:12 61 °F 59 °F 29.9 in WNW 3.1 mph 4.7 mph 94 % 0 in
07:13 61 °F 59 °F 29.9 in WNW 3.1 mph 4.7 mph 94 % 0 in
07:18 61.2 °F 59 °F 29.9 in Calm   4.3 mph 94 % 0 in
07:23 61.3 °F 59 °F 29.9 in Calm   4 mph 94 % 0 in
07:28 61.7 °F 60.8 °F 29.9 in WSW 2.5 mph 3.6 mph 94 % 0 in
07:33 62.1 °F 60.8 °F 29.9 in WNW 2.7 mph 3.6 mph 94 % 0 in
07:38 62.4 °F 60.8 °F 29.9 in Calm   2.9 mph 94 % 0 in
07:43 62.6 °F 60.8 °F 29.9 in Calm   4.3 mph 93 % 0 in
07:48 63 °F 60.8 °F 29.9 in Calm   4.3 mph 93 % 0 in
07:53 63.3 °F 60.8 °F 29.9 in WNW 1.6 mph 4.3 mph 92 % 0 in
07:58 63.7 °F 60.8 °F 29.9 in NNW 2.2 mph 4.3 mph 91 % 0 in
08:03 64.2 °F 60.8 °F 29.9 in WNW 3.4 mph 3.6 mph 90 % 0 in
08:08 64.6 °F 60.8 °F 29.9 in Calm   3.8 mph 89 % 0 in
08:13 64.4 °F 60.8 °F 29.9 in NNW 2.9 mph 4.9 mph 86 % 0 in
08:18 64.6 °F 59 °F 29.9 in NNE 2 mph 5.8 mph 84 % 0 in
08:23 64.6 °F 59 °F 29.9 in Calm   5.8 mph 84 % 0 in
08:28 64.4 °F 59 °F 29.9 in NE 2.5 mph 5.6 mph 82 % 0 in
08:33 64.4 °F 59 °F 29.9 in NE 3.8 mph 5.6 mph 81 % 0 in
08:38 64.6 °F 59 °F 29.9 in Calm   5.6 mph 82 % 0 in
08:43 64.8 °F 59 °F 29.9 in WNW 4 mph 4 mph 81 % 0 in
08:48 64.8 °F 59 °F 29.9 in NNE 4.9 mph 5.4 mph 80 % 0 in
08:53 64.6 °F 59 °F 29.9 in North 2.9 mph 5.8 mph 80 % 0 in
08:58 64.9 °F 59 °F 29.9 in NW 3.6 mph 5.8 mph 80 % 0 in
09:03 65.1 °F 59 °F 29.9 in NNE 2.5 mph 4.9 mph 79 % 0 in
09:08 65.3 °F 57.2 °F 29.9 in North 2.9 mph 6.3 mph 76 % 0 in
09:13 66.7 °F 59 °F 29.9 in NE 4.3 mph 7.2 mph 74 % 0 in
09:19 67.5 °F 59 °F 29.9 in North 5.6 mph 7.2 mph 72 % 0 in
09:23 67.8 °F 59 °F 29.9 in NNW 0.9 mph 6.3 mph 71 % 0 in
09:29 67.6 °F 57.2 °F 29.9 in North 2.7 mph 6.5 mph 70 % 0 in
09:34 67.8 °F 57.2 °F 29.9 in NNW 3.1 mph 6.5 mph 70 % 0 in
09:39 68 °F 57.2 °F 29.9 in Calm   5.8 mph 69 % 0 in
09:44 68.2 °F 55.4 °F 29.9 in NE 8.1 mph 8.1 mph 66 % 0 in
09:49 68.2 °F 55.4 °F 29.9 in North 4.3 mph 8.1 mph 66 % 0 in
09:54 68.4 °F 57.2 °F 29.9 in North 3.1 mph 6.3 mph 65 % 0 in
09:59 68.9 °F 55.4 °F 29.9 in North 5.8 mph 8.1 mph 63 % 0 in
10:04 70.2 °F 57.2 °F 29.9 in NE 2.9 mph 8.1 mph 62 % 0 in
10:09 69.3 °F 53.6 °F 29.9 in ENE 5.4 mph 8.1 mph 57 % 0 in
10:14 69.4 °F 55.4 °F 29.9 in ENE 6.5 mph 8.7 mph 59 % 0 in
10:19 70 °F 53.6 °F 29.9 in North 4.9 mph 8.9 mph 57 % 0 in
10:24 70 °F 53.6 °F 29.9 in NW 2.9 mph 10.3 mph 54 % 0 in
10:29 70.3 °F 53.6 °F 29.9 in North 4.5 mph 10.3 mph 55 % 0 in
10:34 71.2 °F 53.6 °F 29.9 in NE 3.6 mph 8.7 mph 54 % 0 in
10:39 71.6 °F 53.6 °F 29.9 in North 5.6 mph 7.6 mph 53 % 0 in
10:44 71.8 °F 53.6 °F 29.9 in North 5.8 mph 8.7 mph 52 % 0 in
10:49 71.6 °F 51.8 °F 29.9 in Calm   8.7 mph 50 % 0 in
10:54 70.9 °F 51.8 °F 29.9 in NE 4 mph 7.6 mph 49 % 0 in
10:59 70.9 °F 51.8 °F 29.9 in North 4.7 mph 7.4 mph 51 % 0 in
11:04 71.6 °F 53.6 °F 29.9 in NNW 2.9 mph 6.3 mph 51 % 0 in
11:09 72.5 °F 53.6 °F 29.9 in ENE 7.8 mph 9.6 mph 51 % 0 in
11:14 72.9 °F 53.6 °F 29.9 in ENE 4.3 mph 9.6 mph 50 % 0 in
11:19 73 °F 53.6 °F 29.9 in North 1.6 mph 9.6 mph 49 % 0 in
11:24 73.8 °F 53.6 °F 29.9 in East 0.9 mph 6.5 mph 47 % 0 in
11:29 74.1 °F 53.6 °F 29.9 in NE 8.1 mph 8.1 mph 47 % 0 in
11:34 74.3 °F 51.8 °F 29.9 in Calm   8.5 mph 45 % 0 in
11:40 74.1 °F 51.8 °F 29.9 in NE 3.8 mph 8.5 mph 46 % 0 in
11:45 75.2 °F 53.6 °F 29.9 in ENE 4.9 mph 6.5 mph 46 % 0 in
11:50 75.6 °F 53.6 °F 29.9 in ESE 3.4 mph 4.9 mph 46 % 0 in
11:55 76.1 °F 53.6 °F 29.9 in SE 4.5 mph 4.5 mph 45 % 0 in
12:00 76.3 °F 55.4 °F 29.9 in South 3.4 mph 6 mph 46 % 0 in
12:05 74.7 °F 51.8 °F 29.9 in Calm   6 mph 45 % 0 in
12:10 74.5 °F 53.6 °F 29.9 in SSE 1.6 mph 3.8 mph 46 % 0 in
12:15 73.8 °F 51.8 °F 29.9 in SSW 2.9 mph 3.8 mph 46 % 0 in
12:20 74.1 °F 51.8 °F 30 in Calm   3.8 mph 46 % 0 in
12:25 73.8 °F 53.6 °F 30 in Calm   1.3 mph 47 % 0 in
12:30 73.2 °F 51.8 °F 30 in Calm   5.4 mph 46 % 0 in
12:35 73.2 °F 51.8 °F 29.9 in WSW 3.6 mph 5.4 mph 47 % 0 in
12:40 73.6 °F 51.8 °F 29.9 in North 2.9 mph 5.4 mph 47 % 0 in
12:45 73.8 °F 53.6 °F 29.9 in Calm   5.4 mph 47 % 0 in
12:50 73.2 °F 51.8 °F 29.9 in Calm   4 mph 47 % 0 in
12:55 72.5 °F 51.8 °F 29.9 in Calm   5.8 mph 48 % 0 in
13:00 72 °F 51.8 °F 29.9 in West 3.8 mph 6.7 mph 48 % 0 in
13:05 73.2 °F 53.6 °F 29.9 in Calm   6.7 mph 48 % 0 in
13:10 75.6 °F 55.4 °F 29.9 in WSW 2.7 mph 4.3 mph 48 % 0 in
13:15 74.3 °F 51.8 °F 29.9 in NE 2.5 mph 5.6 mph 45 % 0 in
13:20 74.5 °F 53.6 °F 29.9 in NNW 4.9 mph 6 mph 46 % 0 in
13:25 74.5 °F 53.6 °F 29.9 in Calm   6 mph 46 % 0 in
13:30 76.3 °F 53.6 °F 29.9 in Calm   5.4 mph 44 % 0 in
13:36 77.5 °F 55.4 °F 29.9 in NNW 3.6 mph 5.4 mph 44 % 0 in
13:41 77.9 °F 53.6 °F 29.9 in NE 3.1 mph 8.7 mph 43 % 0 in
13:46 76.6 °F 51.8 °F 29.9 in NE 2 mph 8.7 mph 42 % 0 in
13:51 75.9 °F 51.8 °F 29.9 in Calm   7.8 mph 42 % 0 in
13:56 76.5 °F 51.8 °F 29.9 in West 2.5 mph 5.8 mph 43 % 0 in
14:01 77.9 °F 53.6 °F 29.9 in WSW 4.3 mph 4.9 mph 42 % 0 in
14:06 79 °F 53.6 °F 29.9 in NE 2 mph 4.3 mph 41 % 0 in
14:11 79 °F 53.6 °F 29.9 in NE 3.6 mph 7.6 mph 40 % 0 in
14:16 78.4 °F 53.6 °F 29.9 in ENE 3.8 mph 7.8 mph 41 % 0 in
14:21 78.6 °F 51.8 °F 29.9 in North 4.3 mph 7.8 mph 39 % 0 in
14:26 79.2 °F 53.6 °F 29.9 in NNE 4.3 mph 7.4 mph 40 % 0 in
14:31 79 °F 51.8 °F 29.9 in North 5.4 mph 7.8 mph 39 % 0 in
14:36 79.5 °F 53.6 °F 29.9 in Calm   7.8 mph 40 % 0 in
14:41 80.2 °F 53.6 °F 29.9 in North 1.6 mph 6.7 mph 39 % 0 in
14:46 80.1 °F 51.8 °F 29.9 in NW 5.8 mph 6.5 mph 38 % 0 in
14:51 80.1 °F 51.8 °F 29.9 in NNE 3.6 mph 7.6 mph 38 % 0 in
14:56 80.4 °F 51.8 °F 29.9 in NE 3.8 mph 7.6 mph 37 % 0 in
15:01 80.6 °F 51.8 °F 29.9 in NNE 3.8 mph 7.6 mph 37 % 0 in
15:06 80.6 °F 50 °F 29.9 in NNW 4 mph 7.8 mph 35 % 0 in
15:11 80.8 °F 51.8 °F 29.9 in North 7.8 mph 8.1 mph 36 % 0 in
15:16 81 °F 51.8 °F 29.9 in NE 5.4 mph 8.1 mph 36 % 0 in
15:21 81.3 °F 51.8 °F 29.9 in NNW 6 mph 7.8 mph 36 % 0 in
15:26 81 °F 51.8 °F 29.9 in North 3.8 mph 7.6 mph 36 % 0 in
15:31 80.4 °F 50 °F 29.9 in NNE 6 mph 8.1 mph 35 % 0 in
15:36 80.1 °F 50 °F 29.9 in NE 7.8 mph 11 mph 35 % 0 in
15:41 80.1 °F 50 °F 29.9 in ENE 4 mph 11 mph 35 % 0 in
15:46 80.6 °F 51.8 °F 29.9 in NE 3.1 mph 7.6 mph 36 % 0 in
15:51 80.2 °F 51.8 °F 29.9 in NNE 5.4 mph 9.8 mph 36 % 0 in
15:52 80.2 °F 51.8 °F 29.9 in NNW 3.8 mph 9.8 mph 36 % 0 in
15:57 80.6 °F 51.8 °F 29.9 in ENE 3.1 mph 9.8 mph 36 % 0 in
16:02 81.1 °F 53.6 °F 29.9 in WNW 3.6 mph 5.6 mph 37 % 0 in
16:07 80.4 °F 50 °F 29.9 in NNW 6 mph 8.5 mph 35 % 0 in
16:12 79.2 °F 50 °F 29.9 in ENE 8.1 mph 8.7 mph 35 % 0 in
16:17 79.7 °F 50 °F 29.9 in NNW 5.4 mph 8.7 mph 35 % 0 in
16:22 80.1 °F 50 °F 29.9 in NNW 5.8 mph 7.4 mph 35 % 0 in
16:27 80.1 °F 50 °F 29.9 in NNE 6.5 mph 8.7 mph 35 % 0 in
16:32 79.9 °F 50 °F 29.9 in NNW 7.8 mph 8.7 mph 35 % 0 in
16:37 79.5 °F 48.2 °F 29.9 in NNW 5.8 mph 8.5 mph 34 % 0 in
16:42 79.9 °F 50 °F 29.9 in North 5.6 mph 8.5 mph 35 % 0 in
16:47 79.3 °F 48.2 °F 29.9 in North 7.6 mph 8.9 mph 34 % 0 in
16:49 79.5 °F 50 °F 29.9 in NE 6.5 mph 8.9 mph 35 % 0 in
16:59 78.4 °F 48.2 °F 29.9 in NNE 7.8 mph 10.1 mph 34 % 0 in
17:04 78.4 °F 48.2 °F 29.9 in NNW 5.6 mph 10.1 mph 34 % 0 in
17:09 78.1 °F 48.2 °F 29.9 in NE 7.8 mph 10.3 mph 34 % 0 in
17:14 78.1 °F 48.2 °F 29.9 in North 2.9 mph 10.3 mph 35 % 0 in
17:19 78.1 °F 48.2 °F 29.9 in NNE 5.4 mph 10.3 mph 34 % 0 in
17:24 77.7 °F 48.2 °F 29.9 in North 4 mph 10.7 mph 34 % 0 in
17:29 77.7 °F 48.2 °F 29.9 in NNE 6.5 mph 10.7 mph 34 % 0 in
17:34 77.5 °F 48.2 °F 29.9 in ENE 6.5 mph 11.2 mph 34 % 0 in
17:39 77.2 °F 46.4 °F 29.9 in North 7.8 mph 11.2 mph 34 % 0 in
17:44 77.5 °F 48.2 °F 29.9 in North 8.7 mph 10.7 mph 34 % 0 in
17:49 77.5 °F 48.2 °F 29.9 in NNE 6.9 mph 10.7 mph 34 % 0 in
17:54 76.5 °F 46.4 °F 29.9 in NNE 8.1 mph 10.7 mph 35 % 0 in
17:59 76.3 °F 46.4 °F 29.9 in North 6.3 mph 13 mph 34 % 0 in
18:04 76.5 °F 46.4 °F 29.9 in NNE 7.2 mph 13 mph 35 % 0 in
18:09 75.9 °F 46.4 °F 29.9 in NE 9.4 mph 11 mph 35 % 0 in
18:14 75.7 °F 46.4 °F 29.9 in NNE 4.3 mph 11 mph 35 % 0 in
18:19 75.7 °F 46.4 °F 29.9 in NE 6.3 mph 10.5 mph 35 % 0 in
18:24 75.9 °F 46.4 °F 29.9 in North 7.6 mph 10.7 mph 35 % 0 in
18:29 75.9 °F 46.4 °F 29.9 in NE 10.3 mph 10.7 mph 35 % 0 in
18:34 75.4 °F 46.4 °F 29.9 in North 7.8 mph 12.3 mph 36 % 0 in
18:39 75.4 °F 46.4 °F 29.9 in NNE 10.3 mph 12.3 mph 36 % 0 in
18:44 75.4 °F 46.4 °F 29.9 in NE 8.7 mph 11 mph 36 % 0 in
18:49 75 °F 48.2 °F 29.9 in North 8.7 mph 11 mph 37 % 0 in
18:54 75 °F 46.4 °F 29.9 in North 9.2 mph 10.1 mph 36 % 0 in
18:56 75.2 °F 46.4 °F 29.9 in North 4.3 mph 10.3 mph 36 % 0 in
19:01 74.7 °F 46.4 °F 29.9 in NNE 7.4 mph 11 mph 37 % 0 in
19:06 74.5 °F 46.4 °F 29.9 in North 10.1 mph 12.1 mph 37 % 0 in
19:11 74.3 °F 48.2 °F 29.9 in North 10.7 mph 12.1 mph 38 % 0 in
19:16 74.1 °F 46.4 °F 29.9 in NNE 3.6 mph 12.1 mph 38 % 0 in
19:21 73.9 °F 46.4 °F 29.9 in NE 10.1 mph 10.7 mph 38 % 0 in
19:26 73.6 °F 48.2 °F 29.9 in NNE 9.4 mph 10.7 mph 39 % 0 in
19:31 73.4 °F 46.4 °F 29.9 in NE 7.8 mph 10.7 mph 38 % 0 in
19:36 73.2 °F 48.2 °F 29.9 in NE 5.8 mph 10.7 mph 40 % 0 in
19:41 73 °F 48.2 °F 29.9 in North 8.1 mph 10.7 mph 40 % 0 in
19:47 72.9 °F 48.2 °F 29.9 in ENE 8.5 mph 10.7 mph 41 % 0 in
19:52 72.5 °F 48.2 °F 29.9 in NNE 8.9 mph 10.5 mph 41 % 0 in
19:57 72.1 °F 48.2 °F 29.9 in NE 11 mph 11.2 mph 41 % 0 in
20:02 72 °F 48.2 °F 29.9 in NNE 11 mph 11.2 mph 42 % 0 in
20:07 71.6 °F 48.2 °F 29.9 in NNE 6 mph 11 mph 42 % 0 in
20:12 71.4 °F 48.2 °F 29.9 in NE 6 mph 10.5 mph 43 % 0 in
20:17 70.9 °F 48.2 °F 29.9 in NNE 7.6 mph 12.3 mph 43 % 0 in
20:22 70.5 °F 46.4 °F 29.9 in NNE 8.1 mph 12.3 mph 43 % 0 in
20:25 70.5 °F 46.4 °F 29.9 in NE 8.5 mph 11 mph 43 % 0 in
20:29 70.5 °F 48.2 °F 29.9 in NNE 10.5 mph 11 mph 44 % 0 in
20:34 70.5 °F 48.2 °F 29.9 in North 8.1 mph 10.5 mph 44 % 0 in
20:39 69.3 °F 48.2 °F 29.9 in NE 6.5 mph 10.5 mph 45 % 0 in
20:44 69.1 °F 48.2 °F 29.9 in North 4.9 mph 9.8 mph 45 % 0 in
20:49 68.5 °F 48.2 °F 29.9 in NNE 6.3 mph 9.6 mph 46 % 0 in
20:54 68 °F 46.4 °F 29.9 in NNE 7.8 mph 10.1 mph 46 % 0 in
20:59 67.8 °F 48.2 °F 29.9 in NE 5.8 mph 10.1 mph 47 % 0 in
21:05 67.6 °F 48.2 °F 29.9 in NNE 7.4 mph 8.7 mph 48 % 0 in
21:10 67.3 °F 48.2 °F 29.9 in NNE 7.4 mph 8.7 mph 49 % 0 in
21:15 66.9 °F 48.2 °F 29.9 in NE 8.7 mph 9.6 mph 50 % 0 in
21:20 66.7 °F 48.2 °F 29.9 in NE 7.6 mph 9.6 mph 51 % 0 in
21:25 66.2 °F 48.2 °F 29.9 in NE 5.8 mph 10.5 mph 52 % 0 in
21:30 65.8 °F 48.2 °F 29.9 in NE 5.8 mph 10.5 mph 54 % 0 in
21:35 65.5 °F 48.2 °F 29.9 in NE 6 mph 8.1 mph 54 % 0 in
21:40 65.1 °F 48.2 °F 29.9 in NE 4.5 mph 8.1 mph 55 % 0 in
21:45 64.8 °F 48.2 °F 29.9 in NE 4 mph 8.7 mph 56 % 0 in
21:50 64.6 °F 48.2 °F 29.9 in NE 7.4 mph 8.7 mph 55 % 0 in
21:55 64.2 °F 48.2 °F 29.9 in Calm   8.1 mph 57 % 0 in
22:00 63.9 °F 48.2 °F 29.9 in NE 5.4 mph 8.7 mph 57 % 0 in
22:01 63.9 °F 48.2 °F 29.9 in North 5.8 mph 8.7 mph 57 % 0 in
22:06 63.5 °F 48.2 °F 29.9 in ENE 3.8 mph 8.7 mph 58 % 0 in
22:07 63.5 °F 48.2 °F 29.9 in NE 4.7 mph 8.7 mph 58 % 0 in
22:13 63.1 °F 48.2 °F 29.9 in NE 4.3 mph 8.1 mph 58 % 0 in
22:18 63.1 °F 48.2 °F 29.9 in North 6.5 mph 8.1 mph 58 % 0 in
22:23 63.1 °F 48.2 °F 29.9 in NE 6 mph 7.6 mph 58 % 0 in
22:28 62.2 °F 48.2 °F 29.9 in ENE 8.7 mph 8.7 mph 60 % 0 in
22:33 61.9 °F 48.2 °F 29.9 in NNE 5.6 mph 8.7 mph 61 % 0 in
22:38 61.7 °F 48.2 °F 29.9 in NE 5.6 mph 7.6 mph 61 % 0 in
22:43 61.3 °F 48.2 °F 29.9 in NE 4.9 mph 7.4 mph 62 % 0 in
22:53 61 °F 48.2 °F 29.9 in NNE 5.4 mph 8.1 mph 64 % 0 in
22:58 60.8 °F 48.2 °F 29.9 in NNE 7.4 mph 8.1 mph 64 % 0 in
23:03 60.6 °F 50 °F 29.9 in NE 3.8 mph 7.4 mph 65 % 0 in
23:08 60.4 °F 48.2 °F 29.9 in North 4.3 mph 8.7 mph 66 % 0 in
23:13 60.4 °F 48.2 °F 29.9 in NNE 5.8 mph 8.7 mph 66 % 0 in
23:23 59.9 °F 50 °F 29.9 in NNE 7.4 mph 7.8 mph 67 % 0 in
23:28 59.9 °F 50 °F 29.9 in NE 4.9 mph 7.8 mph 67 % 0 in
23:33 59.7 °F 50 °F 29.9 in NE 4 mph 7.4 mph 68 % 0 in
23:36 59.7 °F 50 °F 29.9 in NE 6.3 mph 7.4 mph 68 % 0 in
23:41 59.4 °F 50 °F 29.9 in NNE 4.9 mph 6.5 mph 68 % 0 in
23:46 59.4 °F 50 °F 29.9 in NE 5.4 mph 7.6 mph 69 % 0 in
23:51 59.4 °F 50 °F 29.9 in NNE 7.6 mph 7.8 mph 69 % 0 in
23:56 59.4 °F 50 °F 29.9 in NNE 2.9 mph 8.1 mph 70 % 0 in
Le Gheer Warneton
Courtoisie de Weather Underground - 2.25 mb

Mise a jour : 18/12/2017 21:33:12
Généré par Cumulus 1.9.4 (1099)